EHI
4 3 1 0 0 0 0 0 0 0 0 0 0 0 0 0 0 0 0 0 0 0 0 0 0 0 0 0 0 0 0 0 0 0 0 0 0 0 0 0 0 0 0
3 3 1 0 0 0 0 0 0 0 0 0 0 0 0 0 0 0 0 0 0 0 0 0 0 0 0 0 0 0 0 0 0 0 0 0 0 0 0 0 0 0 0
2 2 1 0 0 0 0 0 0 0 0 0 0 0 0 0 0 0 0 0 0 0 0 0 0 0 0 0 0 0 0 0 0 0 0 0 0 0 0 0 0 0 0
2 1 1 1 0 0 0 0 0 0 0 0 0 0 0 0 0 0 0 0 0 0 0 0 0 0 0 0 0 0 0 0 0 0 0 0 0 0 0 0 0 0 0
1 1 1 1 0 0 0 0 0 0 0 0 0 0 0 0 0 0 0 0 0 0 0 0 0 0 0 0 0 0 0 0 0 0 0 0 0 0 0 0 0 0 0
1 2 2 1 0 0 0 0 0 0 0 0 0 0 0 0 0 0 0 0 0 0 0 0 0 0 0 0 0 0 0 0 0 0 0 0 0 0 0 0 0 0 0
1 2 2 1 0 0 0 0 0 0 0 0 0 0 0 0 0 0 0 0 0 0 0 0 0 0 0 0 0 0 0 0 0 0 0 0 0 0 0 0 0 0 0
1 2 2 1 0 0 0 0 0 0 0 0 0 0 0 0 0 0 0 0 0 0 0 0 0 0 0 0 0 0 0 0 0 0 0 0 0 0 0 0 0 0 0
1 1 2 1 0 0 0 0 0 0 0 0 0 0 0 0 0 0 0 0 0 0 0 0 0 0 0 0 0 0 0 0 0 0 0 0 0 0 0 0 0 0 0
0 1 1 0 0 0 0 0 0 0 0 0 0 0 0 0 0 0 0 0 0 0 0 0 0 0 0 0 0 0 0 0 0 0 0 0 0 0 0 0 0 0 0
0 0 0 0 0 0 0 0 0 0 0 0 0 0 0 0 0 0 0 0 0 0 0 0 0 0 0 0 0 0 0 0 0 0 0 0 0 0 0 0 0 0 0
0 0 0 0 0 0 0 0 0 0 0 0 0 0 0 0 0 0 0 0 0 0 0 0 0 0 0 0 0 0 0 0 0 0 0 0 0 0 0 0 0 0 0
0 0 0 0 0 0 0 0 0 0 0 0 0 0 0 0 0 0 0 0 0 0 0 0 0 0 0 0 0 0 0 0 0 0 0 0 0 0 0 0 0 0 0
0 0 0 0 0 0 0 0 0 0 0 0 0 0 0 0 0 0 0 0 0 0 0 0 0 0 0 0 0 0 0 0 0 0 0 0 0 0 0 0 0 0 0
0 0 0 0 0 0 0 0 0 0 0 0 0 0 0 0 0 0 0 0 0 0 0 0 0 0 0 0 0 0 0 0 0 0 0 0 0 0 0 0 0 0 0
0 0 0 0 0 0 0 0 0 0 0 0 0 0 0 0 0 0 0 0 0 0 0 0 0 0 0 0 0 0 0 0 0 0 0 0 0 0 0 0 0 0 0
0 0 0 0 0 0 0 0 0 0 0 0 0 0 0 0 0 0 0 0 0 0 0 0 0 0 0 0 0 0 0 0 0 0 0 0 0 0 0 0 0 0 0
0 0 0 0 0 0 0 0 0 0 0 0 0 0 0 0 0 0 0 0 0 0 0 0 0 0 0 0 0 0 0 0 0 0 0 0 0 0 0 0 0 0 0
0 0 0 0 0 0 0 0 0 0 0 0 0 0 0 0 0 0 0 0 0 0 0 0 0 0 0 0 0 0 0 0 0 0 0 0 0 0 0 0 0 0 0
0 0 0 0 0 0 0 0 0 0 0 0 0 0 0 0 0 0 0 0 0 0 0 0 0 0 0 0 0 0 0 0 0 0 0 0 0 0 0 0 0 0 0
0 0 0 0 0 0 0 0 0 0 0 0 0 0 0 0 0 0 0 0 0 0 0 0 0 0 0 0 0 0 0 0 0 0 0 0 0 0 0 0 0 0 0
0 0 0 0 0 0 0 0 0 0 0 0 0 0 0 0 0 0 0 0 0 0 0 0 0 0 0 0 0 0 0 0 0 0 0 0 0 0 0 0 0 0 0
0 0 0 0 0 0 0 0 0 0 0 0 0 0 0 0 0 0 0 0 0 0 0 0 0 0 0 0 0 0 0 0 0 0 0 0 0 0 0 0 0 0 0
0 0 0 0 0 0 0 0 0 0 0 0 0 0 0 0 0 0 0 0 0 0 0 0 0 0 0 0 0 0 0 0 0 0 0 0 0 0 0 0 0 0 0
0 0 0 0 0 0 0 0 0 0 0 0 0 0 0 0 0 0 0 0 0 0 0 0 0 0 0 0 0 0 0 0 0 0 0 0 0 0 0 0 0 0 0
0 0 0 0 0 0 0 0 0 0 0 0 0 0 0 0 0 0 0 0 0 0 0 0 0 0 0 0 0 0 0 0 0 0 0 0 0 0 0 0 0 0 0
Wind_Speed
4 4 3 3 4 3 4 4 4 5 6 6 6 6 7 7 6 6 6 12 12 11 11 11 11 11 11 11 11 11 11 11 10 10 9 8 7 7 7 7 6 6 7
4 4 4 4 4 3 3 3 4 4 5 5 6 6 6 6 6 6 6 8 12 12 12 12 11 11 10 11 10 10 10 10 11 10 9 8 7 6 6 6 6 5 5
5 5 4 4 4 4 4 4 5 4 5 5 6 6 5 6 6 7 6 5 6 11 12 12 12 11 11 10 10 10 10 10 10 10 10 9 8 7 6 6 5 4 5
5 5 4 4 4 4 3 3 3 4 4 4 4 4 5 5 6 6 6 6 5 5 9 12 12 12 11 11 11 10 10 10 10 10 10 10 9 8 8 7 5 4 4
5 5 4 4 5 4 4 3 3 3 4 4 4 4 4 5 5 5 6 7 6 6 5 8 11 12 11 11 11 11 10 10 10 10 10 10 10 8 7 8 7 4 4
5 5 4 5 5 4 4 4 4 4 4 4 4 5 4 4 4 5 5 5 6 6 6 6 5 7 11 11 11 11 10 9 10 10 10 10 10 9 7 8 8 6 5
5 5 4 5 4 4 5 5 5 6 4 3 3 4 4 4 4 4 4 4 5 6 6 6 5 5 5 9 11 11 10 9 9 9 10 10 10 10 8 7 7 6 5
5 4 5 5 5 4 6 6 6 4 3 2 2 2 2 2 2 3 3 3 4 4 5 5 5 5 5 4 7 11 11 10 9 9 9 9 9 10 9 8 8 6 5
5 5 6 5 5 5 5 6 6 5 4 3 1 1 2 2 2 1 1 2 3 3 3 4 4 4 5 4 4 8 11 11 9 9 10 9 10 10 10 10 9 8 6
5 5 5 6 5 4 5 6 5 4 5 4 2 0 1 1 2 2 1 1 2 2 3 2 3 3 4 3 4 8 10 10 9 9 9 9 9 10 10 10 10 8 8
5 5 5 5 5 4 5 6 5 5 4 4 3 2 1 1 1 2 2 2 0 1 1 2 2 2 3 3 3 6 9 9 10 9 9 9 9 10 10 10 11 9 8
4 5 5 5 5 4 5 5 5 6 4 4 3 2 2 2 2 2 2 2 1 0 1 1 1 1 2 3 4 8 9 9 10 9 8 8 9 9 10 10 10 9 8
4 5 5 5 5 5 5 5 5 5 5 5 4 3 2 1 1 1 2 1 1 1 1 1 1 1 1 2 3 7 7 8 9 10 9 8 8 9 9 10 9 9 8
5 6 6 5 5 5 5 5 4 5 4 5 4 4 2 2 2 2 2 2 2 1 2 2 1 1 1 2 4 6 4 7 8 9 9 8 8 9 9 9 9 9 8
4 6 6 6 6 6 6 5 4 5 4 4 4 4 3 2 2 2 2 3 2 2 2 2 1 1 2 2 3 3 3 5 7 8 9 8 8 8 8 9 9 10 9
5 6 6 6 6 6 6 5 5 5 5 4 3 4 3 2 2 2 2 2 2 2 2 1 2 2 2 2 3 3 3 5 5 7 8 8 7 7 8 8 9 9 9
6 6 6 6 6 6 6 6 5 5 5 5 4 4 4 3 2 2 2 2 2 2 2 2 2 2 3 3 2 3 3 3 3 5 7 8 8 7 7 8 8 8 9
5 6 6 6 6 6 6 6 6 6 6 5 5 5 4 3 3 3 2 3 2 2 3 3 3 2 3 3 3 3 3 3 3 5 6 7 7 7 7 7 8 8 9
4 5 5 5 6 6 6 6 6 6 5 5 5 5 5 5 4 3 3 3 2 2 2 3 3 2 2 2 3 3 3 3 3 4 5 6 7 7 7 7 8 8 8
4 5 5 5 5 5 5 6 6 6 5 4 4 4 5 5 5 4 3 3 3 3 3 3 3 3 2 2 3 3 3 3 3 3 4 4 6 7 7 7 7 7 8
4 4 4 4 4 4 5 5 5 5 5 4 4 4 3 4 4 4 3 4 4 3 3 3 3 3 3 2 3 2 3 4 4 3 3 3 4 4 4 5 6 7 8
3 4 4 4 4 4 6 7 5 4 4 4 4 4 3 4 4 5 5 5 5 4 4 3 3 4 4 4 3 3 3 4 3 2 4 4 4 4 4 4 6 8 8
3 3 3 4 4 5 7 7 6 4 4 4 4 4 3 3 4 4 4 5 5 5 5 4 4 5 4 4 4 4 4 5 5 4 4 5 4 5 4 4 7 8 9
3 3 3 3 3 4 6 6 6 4 3 4 4 4 4 4 4 4 4 4 4 4 5 4 4 4 4 3 4 4 4 5 5 4 4 5 4 5 5 4 6 7 9
3 3 3 3 3 3 5 6 5 3 3 4 3 4 4 4 5 6 4 4 4 3 3 4 4 4 4 5 4 3 3 4 4 3 2 4 4 5 5 5 4 6 8
3 3 2 2 3 3 5 5 5 3 3 3 3 3 5 5 6 6 4 4 5 4 3 3 4 4 4 4 5 5 4 4 4 3 2 3 3 4 4 3 3 4 5
Wind_Direction
127 120 113 103 96 93 90 85 82 79 75 71 70 72 71 70 69 69 63 51 52 56 60 61 61 61 59 58 59 57 54 52 51 48 46 47 47 45 42 39 42 49 48
134 130 120 109 101 95 91 92 88 85 78 74 71 69 70 68 66 67 66 58 50 49 53 55 56 57 58 56 56 55 52 50 47 44 40 40 40 39 36 32 31 38 43
144 136 129 121 111 105 101 97 91 87 82 76 70 66 66 65 68 63 58 54 51 47 47 49 51 53 53 52 51 52 50 48 44 43 39 36 37 34 29 27 23 31 35
150 142 137 126 120 116 112 107 102 96 87 78 69 64 64 62 63 60 57 50 46 42 46 45 44 45 45 45 46 47 48 47 45 42 39 35 33 32 28 22 15 26 28
154 150 143 134 133 126 121 118 110 103 95 82 72 65 63 61 59 58 59 51 46 42 42 45 42 40 38 38 38 39 43 43 40 37 33 29 25 23 24 23 18 15 14
153 150 144 143 141 137 130 128 117 103 97 93 85 70 62 66 63 54 53 52 47 44 40 37 38 40 37 34 32 31 32 34 32 29 26 22 19 15 14 15 12 9 12
153 152 147 148 151 149 144 140 128 120 111 114 102 91 78 69 67 54 47 50 50 44 41 39 35 30 30 34 29 24 23 25 26 22 19 16 12 7 4 5 0 357 357
156 158 157 159 160 156 155 151 143 136 130 144 134 138 137 137 80 53 48 46 42 39 38 37 38 33 25 22 23 19 16 13 14 13 11 10 6 3 356 359 357 350 352
163 164 166 164 165 166 167 166 162 159 156 152 166 176 178 169 131 124 68 52 37 33 34 31 34 30 25 21 17 16 10 3 2 3 2 2 360 357 357 354 348 350 341
167 167 169 168 167 171 175 174 174 172 172 165 153 15 354 119 165 155 164 99 35 23 21 15 22 26 20 18 15 12 2 357 353 354 353 352 351 350 350 351 346 342 341
168 168 170 171 171 173 178 180 179 177 185 182 169 156 141 153 181 183 182 180 150 14 359 355 1 6 13 15 8 6 357 353 349 343 344 345 344 345 346 345 344 338 335
169 171 175 174 174 176 181 185 186 186 186 184 179 183 190 191 185 192 187 194 213 249 312 319 316 350 2 4 11 2 354 353 352 343 340 341 342 343 342 338 340 335 332
176 180 180 181 179 179 180 182 188 189 188 184 185 187 203 212 181 187 167 179 241 260 239 250 284 315 338 339 359 349 349 352 350 348 343 344 343 340 335 333 336 338 329
180 176 181 182 182 177 175 178 185 186 188 189 189 187 189 189 176 183 192 185 209 232 235 238 240 271 310 326 350 327 338 347 346 347 347 348 347 343 337 335 335 337 333
170 174 180 180 182 178 177 177 186 186 184 189 188 184 187 183 182 193 203 206 207 224 239 216 225 256 300 314 325 314 320 340 336 339 343 340 342 342 342 341 339 338 335
169 173 177 180 181 178 178 179 185 187 183 184 182 180 182 180 175 187 198 217 238 239 238 235 253 260 289 297 308 303 310 319 326 333 336 336 332 335 336 333 334 334 331
173 176 177 179 181 179 179 181 185 181 182 182 181 182 184 181 179 183 189 204 219 225 232 254 260 255 270 282 292 296 300 300 313 328 327 329 327 326 326 328 327 328 327
176 176 176 178 179 181 182 184 184 185 186 187 186 185 186 180 186 189 192 200 211 226 227 239 252 251 260 278 290 295 298 297 300 321 320 321 324 320 319 320 324 326 328
172 169 172 177 181 182 183 186 187 189 193 194 190 190 191 186 189 193 194 199 204 213 222 223 240 253 258 268 282 291 292 290 293 303 305 310 311 312 312 315 319 322 324
171 170 172 176 180 182 184 185 184 185 188 192 193 194 197 197 196 194 197 200 198 200 203 211 225 240 251 263 275 285 294 294 293 294 293 299 303 300 301 307 313 317 317
171 170 168 173 178 183 185 183 182 181 180 182 188 193 198 201 209 210 207 200 197 200 202 209 220 232 239 248 262 279 287 296 292 286 296 294 296 293 291 293 299 310 312
164 169 174 175 179 184 181 185 183 179 177 181 186 188 191 196 202 211 216 218 215 206 207 213 227 233 242 252 264 269 278 285 284 293 298 293 290 290 295 291 302 305 307
162 168 172 178 186 184 185 185 185 185 180 185 191 191 192 197 203 200 203 211 221 228 229 232 234 240 246 249 257 262 266 274 283 299 295 285 286 289 298 299 296 299 306
166 168 175 183 184 184 188 187 185 189 183 186 194 196 195 200 206 202 200 210 220 225 228 233 238 248 255 255 249 259 270 276 280 274 275 276 286 293 300 293 296 297 303
161 165 174 178 183 187 191 193 188 180 181 187 193 199 200 205 206 207 207 210 219 229 232 238 252 257 258 252 253 254 254 261 273 273 271 273 288 302 295 286 290 295 298
154 153 166 181 190 198 196 195 189 188 187 187 187 195 206 210 211 216 217 213 220 227 223 227 236 240 245 246 245 247 249 253 266 270 258 273 285 302 292 283 297 304 293